Starlink 11534

operational
NORAD ID: 62555 Int'l Des: 2025-006 Owner: SPXS Country: US Constellation: starlink
LEOCIRCULAR

关于 Starlink 11534

正在加载描述...

实时位置

正在加载3D地球...

即将过境

高度历史

Altitude vs Time

uPlot chart will show altitude changes over time

两行轨道根数

1 62555U 25006B 25350.19255263 .00173122 00000-0 13224-2 0 9994
2 62555 43.0011 282.9058 0001518 276.3671 83.7024 15.70882353 53470
Epoch: Dec 16, 2025 • Age: 24 hours

当前状态

高度 367.6 km
速度 7.69 km/s
星下点 -42.71°S, 21.3°E
发射日期 Jan 10, 2025
运行时间 0.9 years
类型 internet

技术详情

分类 Payload
质量 960.00 kg
干质量 910.00 kg
总质量 960.00 kg
长度 0.30 m
直径 4.10 m
跨度 29.00 m
形状 Box + pan
制造商 SPXS
平台类型 Starlink V2MD
阶段状态 In Orbit
所有者/国家 SPXS/US

大型星座

Loading constellations...